Wind_Speed
15 14 14 13 13 12 13 13 15 15 15 14 13 13 13 12 13 13 12 11 11 11 11 11 10 10 9 10 11 11 12 14 14 13 19 20 14 14 12 6 6 11 12 7 8 13 14 15 16 15 13 13 13 14 13 12 11 9 7 7 7 8 6 4 5 5 3 8 5 6 4 5 9 11 9 10 8 11 11 8 8 8 11 14 15 16 19 19
15 14 14 14 13 12 13 14 16 16 15 15 14 13 13 13 13 12 11 10 10 10 11 10 10 9 8 9 10 11 12 13 15 18 22 21 17 15 13 12 9 9 13 11 11 15 15 16 16 16 15 13 14 14 11 12 12 9 7 6 7 7 4 2 1 2 4 5 3 5 3 3 4 9 11 13 10 12 11 11 11 12 14 14 15 17 19 17
15 15 15 14 14 13 14 15 16 16 16 17 15 14 14 14 13 12 11 10 10 9 10 10 10 8 7 8 8 10 10 11 17 21 21 20 19 17 14 15 14 11 11 11 12 15 14 15 15 15 16 13 13 13 10 12 12 11 9 6 8 8 4 2 2 3 4 2 1 3 3 4 4 4 11 12 11 14 12 12 13 13 14 13 15 16 17 16
15 16 15 15 14 14 15 17 18 18 19 18 16 14 14 14 12 11 11 10 10 9 10 10 10 7 6 6 6 6 7 12 16 16 18 20 19 18 17 15 15 15 13 11 12 15 14 13 14 16 15 13 13 13 10 11 11 11 10 8 8 6 5 4 6 4 2 1 1 1 4 6 6 5 9 10 11 12 11 13 14 15 16 15 17 16 17 16
16 16 16 15 15 15 17 19 19 17 17 16 14 13 14 13 11 10 11 11 10 10 9 10 9 7 6 6 6 2 3 7 5 13 19 20 17 16 18 17 16 16 16 13 13 15 15 14 15 17 16 12 13 12 11 13 12 10 10 13 10 3 4 5 8 6 3 2 2 2 3 3 6 9 11 9 8 7 8 12 11 16 16 14 16 18 18 16
16 16 16 15 15 17 19 21 19 14 13 13 11 12 13 13 12 10 11 12 10 9 9 9 9 7 6 6 6 3 5 5 5 7 14 14 15 14 15 18 19 18 17 15 15 16 16 17 16 18 16 12 12 11 12 15 14 9 9 15 15 7 6 4 7 6 5 6 4 3 0 2 6 9 9 3 4 4 8 12 13 16 13 14 16 17 17 16
16 16 17 17 17 19 20 20 19 14 12 12 12 13 13 12 12 11 11 12 11 10 9 9 8 7 6 7 6 7 14 15 3 4 8 9 12 13 13 15 19 20 20 17 18 18 18 19 19 18 15 11 13 12 13 15 16 12 8 12 14 12 10 5 6 7 8 7 4 3 1 6 7 8 9 3 8 8 9 13 15 15 14 16 16 16 16 14
16 16 17 18 19 20 20 20 20 16 13 11 13 14 13 12 13 12 11 12 12 11 9 10 9 7 7 8 6 10 19 23 15 9 9 8 10 10 10 10 15 19 22 21 20 20 19 21 21 19 14 11 13 12 14 14 14 14 12 10 11 13 13 9 8 8 9 8 6 5 5 8 5 8 12 7 8 9 10 14 15 13 14 15 16 16 14 13
17 17 18 18 19 19 20 20 20 18 14 12 13 13 13 13 13 12 12 12 11 11 9 10 9 7 7 7 6 12 17 19 18 13 10 8 8 9 8 7 10 16 22 23 22 21 20 21 22 20 15 13 14 13 14 13 10 14 16 13 9 10 12 11 11 10 11 10 8 7 8 7 5 8 11 9 9 10 12 14 12 12 14 14 15 15 13 13
18 17 17 18 18 18 20 20 19 17 15 13 12 12 13 14 15 14 13 13 11 11 10 9 9 7 6 5 9 11 10 11 12 11 14 14 11 10 10 9 10 13 20 23 23 23 22 21 21 21 18 15 14 13 15 13 9 11 17 17 12 11 11 11 12 14 13 11 10 9 9 9 10 11 7 10 10 10 13 14 13 14 15 15 15 14 12 12
18 18 17 17 18 19 18 18 16 15 14 13 13 13 14 14 16 16 13 12 12 11 11 9 9 7 5 8 14 11 5 7 8 8 12 16 13 13 12 12 13 14 19 23 24 24 24 21 19 19 16 12 13 13 14 16 11 8 11 15 15 13 11 12 13 14 13 11 12 11 9 11 13 12 7 14 13 11 13 14 15 15 14 15 15 14 12 11
18 18 17 16 18 18 16 15 13 13 13 13 14 15 15 16 16 15 13 11 11 11 10 10 8 6 6 12 20 17 7 5 6 5 8 9 10 13 13 13 14 16 18 22 24 24 23 22 19 18 14 10 11 10 11 17 16 10 9 11 14 14 12 14 14 14 13 12 16 14 9 10 13 10 11 16 13 12 14 13 14 13 13 14 14 13 12 11
19 18 17 16 17 16 15 13 13 13 13 14 15 15 16 16 16 16 15 12 11 11 10 9 8 6 10 16 21 21 14 12 12 10 10 8 9 11 13 14 15 16 17 20 23 23 23 21 20 20 16 11 11 6 5 15 17 12 10 9 11 12 12 15 16 16 16 13 17 16 8 10 14 12 14 13 11 12 14 13 13 13 13 13 13 13 12 10
20 18 16 17 16 15 14 13 13 14 15 15 16 17 18 18 17 16 16 13 11 11 11 9 7 6 13 18 19 19 20 19 19 19 17 13 11 11 11 13 15 16 17 19 20 21 22 20 17 19 17 15 13 6 5 12 14 11 10 9 9 9 10 17 19 19 17 13 17 16 8 10 14 14 14 12 11 12 14 14 12 13 13 12 12 12 11 10
21 18 16 17 16 14 13 13 14 14 16 17 18 18 18 18 18 17 16 13 11 11 9 8 7 7 14 19 18 17 19 21 22 21 21 18 16 14 12 12 14 15 17 18 17 18 20 18 16 16 16 18 16 9 7 10 10 10 10 9 9 8 9 18 21 20 17 13 18 17 9 8 13 15 16 14 13 13 13 14 12 12 13 12 12 12 11 10
20 18 16 17 17 15 14 14 15 16 16 18 18 18 17 16 16 16 15 13 12 10 6 7 8 9 11 12 11 12 17 23 25 22 21 21 19 17 14 12 13 15 16 16 15 15 16 16 16 18 17 16 14 8 8 9 9 10 10 9 10 11 9 15 19 21 20 14 18 20 9 7 10 14 17 16 15 13 12 14 13 12 13 12 11 11 11 10
19 17 17 17 17 15 14 14 16 17 17 19 18 15 13 11 11 11 12 12 10 7 7 8 8 10 14 11 9 13 18 20 21 20 21 22 21 18 16 14 15 16 16 16 15 14 16 16 15 15 15 13 11 9 10 10 10 10 10 9 11 14 11 13 17 20 22 16 17 23 11 8 8 12 15 15 14 14 12 13 14 13 13 12 11 11 12 10
17 16 16 16 16 15 15 15 18 19 20 20 14 10 9 6 5 6 8 7 5 4 7 10 7 7 13 18 18 16 18 21 18 18 21 23 22 19 17 17 17 19 19 17 16 18 18 17 14 11 11 12 11 12 11 11 11 11 12 10 10 14 12 14 16 18 22 17 16 21 11 10 10 10 12 15 15 15 14 13 13 13 13 13 12 12 11 10
16 16 16 16 16 15 15 16 18 18 19 16 8 8 9 5 4 5 8 8 12 9 6 13 19 10 5 11 22 15 9 16 18 17 20 23 22 20 18 18 19 22 21 15 16 20 18 14 13 11 11 14 14 15 13 12 14 13 14 12 11 13 11 13 16 18 20 16 15 20 12 12 11 10 11 12 12 12 13 13 13 14 14 13 13 12 11 10
16 16 15 15 15 15 15 16 17 17 17 12 7 8 7 7 6 8 14 17 21 19 14 17 28 23 14 4 12 13 8 11 15 17 20 23 24 22 20 20 21 22 18 13 14 20 18 12 12 13 14 17 17 19 18 15 14 14 15 14 12 12 11 13 17 20 21 14 14 19 13 12 11 10 11 10 9 9 11 13 13 14 15 15 13 11 11 12
16 16 15 15 15 15 16 17 17 18 17 11 8 8 9 8 5 3 11 17 25 26 24 21 20 24 24 10 4 8 10 11 16 19 20 24 26 22 21 23 19 15 16 17 15 17 17 12 15 18 17 18 18 18 20 17 13 12 14 13 11 11 11 11 15 20 20 13 14 18 13 12 11 10 11 11 9 8 9 11 12 14 14 13 12 11 11 12
17 17 16 15 15 15 16 18 18 17 15 10 9 12 13 10 8 6 5 11 20 26 28 27 23 23 25 20 10 6 10 14 18 20 22 27 27 22 21 22 16 13 16 18 14 13 14 14 18 20 17 17 18 18 20 18 13 9 11 12 10 11 10 9 12 17 18 11 13 18 14 10 10 10 10 10 9 8 8 8 8 11 13 12 11 10 10 10
18 16 16 15 15 16 16 18 19 18 15 11 12 15 14 11 8 8 9 12 16 22 27 27 27 28 26 25 18 11 13 14 17 21 25 27 29 26 22 19 16 16 17 17 15 13 12 14 19 19 18 19 18 18 19 15 11 9 11 11 9 13 13 9 12 17 17 11 10 16 13 8 10 10 9 11 12 11 10 9 8 9 11 11 10 9 8 9
18 16 15 15 15 16 17 19 17 14 13 13 15 15 13 10 8 8 11 13 13 17 25 27 27 29 29 26 20 17 17 15 16 21 26 28 29 26 20 20 19 16 17 20 20 16 13 14 19 19 19 20 18 18 19 12 9 12 13 12 10 16 15 10 12 16 15 12 12 14 10 6 9 10 9 10 13 14 13 12 11 11 10 10 10 9 8 8
19 16 14 15 15 16 17 16 11 7 8 12 14 13 12 10 6 7 9 10 11 14 21 25 25 26 28 24 19 20 18 17 19 20 27 30 29 23 18 20 18 14 19 23 20 15 13 16 21 21 19 20 18 17 19 13 9 12 14 14 14 15 15 14 16 15 12 11 13 16 10 7 11 12 10 11 11 13 13 13 13 13 12 12 12 12 11 11
19 15 12 14 15 15 14 10 4 4 7 10 9 5 6 7 3 5 6 5 7 9 15 20 19 19 24 24 22 20 15 17 22 19 25 30 29 24 17 16 15 15 19 19 13 9 12 17 20 20 20 22 19 16 18 16 10 9 12 16 16 15 16 18 19 14 10 10 12 15 10 7 10 11 11 12 12 13 12 12 13 13 13 13 14 14 14 14
16 13 11 13 13 12 10 7 4 5 6 4 3 3 4 4 2 4 4 5 6 7 13 18 16 15 21 25 25 20 10 14 20 20 23 28 30 26 17 14 14 15 17 13 10 9 12 18 20 21 22 19 16 13 17 19 12 7 13 17 16 15 17 17 18 13 9 10 13 16 14 8 8 10 13 14 14 14 13 11 12 14 15 15 14 14 15 14
14 12 11 13 12 10 11 11 8 7 6 1 3 5 3 2 4 4 3 4 3 6 10 14 13 11 19 25 29 23 14 16 18 18 23 26 30 26 18 18 17 17 19 14 11 11 13 17 19 21 19 14 14 14 17 20 14 9 15 15 14 14 17 15 14 13 11 10 11 16 16 9 7 10 12 15 15 14 14 13 13 15 16 16 15 15 15 14
14 12 12 13 12 11 10 11 11 11 8 4 5 5 3 4 5 3 5 4 2 4 7 11 11 11 18 23 27 27 21 18 18 18 23 25 30 24 16 19 20 18 21 17 13 12 13 17 18 17 14 12 15 16 17 19 16 11 16 16 12 10 14 15 13 11 11 11 10 15 17 10 6 9 11 13 14 14 13 12 13 15 16 15 15 14 14 13
14 12 13 14 12 10 8 10 13 13 9 7 7 5 4 6 5 4 7 4 0 3 6 11 12 15 20 19 19 24 23 18 19 23 24 24 29 26 19 22 21 16 17 17 16 14 13 15 16 15 14 14 15 17 17 19 19 14 14 16 12 8 10 12 11 10 9 9 11 16 19 14 7 8 11 11 12 14 13 11 12 14 15 14 14 13 12 12
14 12 12 13 11 9 8 9 9 8 10 9 7 7 7 5 4 6 6 3 0 3 3 9 14 17 21 19 16 20 22 17 18 23 20 19 23 22 18 18 15 13 14 13 15 15 13 13 12 14 18 16 15 16 16 19 21 14 11 13 11 8 9 10 10 11 10 10 12 16 21 18 9 7 10 10 12 14 13 12 14 14 15 14 13 13 12 11
14 12 12 12 11 11 11 9 5 6 10 9 8 8 6 5 6 7 4 4 2 4 2 7 14 17 20 19 17 19 20 16 17 20 17 16 16 16 15 13 12 13 14 12 14 15 13 13 14 16 20 19 15 14 14 15 18 13 10 12 11 9 8 9 10 11 10 10 12 15 20 16 8 9 12 12 11 12 12 13 14 15 15 15 13 12 12 10
14 13 13 12 12 13 15 11 7 7 8 7 7 8 6 5 7 9 8 4 1 2 3 4 7 13 20 18 17 20 19 16 18 19 18 19 16 15 18 18 17 14 12 14 14 13 12 14 18 16 16 19 17 13 12 13 15 14 12 12 11 10 9 10 11 10 10 10 13 17 18 10 7 10 13 15 13 13 16 15 15 15 15 15 14 12 12 11
13 13 14 14 14 15 15 13 11 10 8 7 7 7 8 8 7 8 9 4 2 2 4 6 10 12 20 18 16 20 18 15 19 19 18 19 15 14 17 20 23 17 12 13 12 12 13 11 16 17 13 18 20 15 14 14 14 14 13 13 11 9 9 9 9 9 11 9 10 16 13 7 7 10 12 17 19 19 19 17 16 16 16 16 15 13 13 12
13 13 13 13 14 15 15 14 13 12 11 10 8 7 9 9 8 6 4 1 3 2 6 6 10 11 17 17 17 23 18 13 19 19 17 18 15 15 16 17 22 19 12 12 9 12 15 11 15 18 14 19 21 17 17 16 13 12 13 12 12 10 9 7 5 5 8 7 6 8 4 3 6 11 13 16 18 18 18 16 15 15 15 16 15 14 13 13
12 11 10 11 13 14 15 16 15 14 13 11 8 8 10 9 6 3 1 1 1 2 5 7 9 8 12 14 16 24 21 14 18 17 14 18 17 17 18 14 20 21 15 12 8 10 13 11 17 19 16 19 19 17 19 17 11 10 12 13 12 13 11 8 4 1 4 8 7 6 6 5 5 8 11 14 15 15 15 15 14 14 14 15 15 14 13 12
10 9 10 13 14 13 15 17 17 17 15 11 8 9 10 10 7 3 3 3 1 2 4 6 7 8 11 13 14 22 21 14 17 15 13 17 16 18 20 17 21 23 18 14 9 9 11 10 18 22 17 20 21 19 19 18 14 10 11 13 12 13 12 9 6 4 7 9 7 8 9 9 7 6 9 14 15 13 12 13 13 14 14 14 14 14 13 12
8 9 12 14 13 13 15 18 18 19 15 9 10 13 10 8 6 2 5 4 1 2 5 5 5 8 10 12 14 21 21 13 15 15 13 14 13 18 21 17 20 23 21 18 10 9 12 8 14 21 18 19 21 18 15 18 21 15 11 12 11 12 12 10 8 8 10 10 7 10 12 10 8 8 12 16 16 14 13 13 13 12 13 13 14 13 12 11
8 10 11 9 12 14 17 19 20 19 13 8 9 11 9 8 8 5 3 3 1 3 6 4 4 6 7 11 14 19 19 14 15 15 13 11 11 18 21 16 18 22 22 19 10 7 10 7 9 18 19 17 16 13 12 15 19 16 13 13 11 10 11 10 8 7 9 10 8 10 13 10 8 12 17 19 18 18 16 14 12 13 14 13 13 12 11 11
9 8 6 9 15 17 18 20 19 15 10 9 10 9 8 9 11 9 4 2 4 5 4 4 5 6 6 9 11 15 16 14 15 14 11 12 12 16 21 16 15 20 22 19 12 8 8 7 8 14 18 15 11 12 15 15 15 15 14 14 11 9 9 10 9 8 9 10 8 8 10 5 1 7 17 20 18 18 16 13 13 15 15 14 13 12 11 11
8 6 5 10 15 18 20 17 13 11 8 9 10 9 9 9 10 8 4 3 6 5 5 7 7 7 7 9 8 12 14 12 15 13 9 13 13 11 17 19 17 18 19 16 12 9 7 7 8 11 14 14 13 16 18 17 17 14 11 12 13 11 10 10 10 10 9 9 8 8 8 4 4 1 10 16 16 16 18 16 15 16 16 15 13 12 11 10
8 4 5 12 15 19 21 13 9 10 8 9 9 10 11 10 9 8 6 4 7 7 6 8 9 9 8 7 7 9 12 8 13 13 9 14 14 10 17 23 22 21 17 12 13 12 7 6 9 11 12 14 16 19 21 20 20 16 12 13 14 12 11 10 10 10 9 10 10 9 7 5 4 1 8 14 16 18 20 18 18 17 16 15 13 12 11 10
8 4 5 12 16 21 17 8 8 10 8 10 12 13 13 11 9 9 7 5 6 6 6 7 8 8 6 6 7 9 11 10 14 14 11 15 14 12 21 25 23 22 16 11 13 12 7 6 9 11 11 13 16 19 18 17 16 15 14 14 14 13 13 12 9 9 8 9 10 8 7 4 3 1 12 17 18 21 20 19 20 19 16 15 13 12 11 11
8 4 5 10 16 19 13 7 8 10 9 11 12 12 11 10 8 8 6 4 6 6 6 8 8 7 6 8 8 7 11 10 11 9 8 13 9 8 22 29 22 18 14 11 12 11 7 7 9 10 10 10 11 14 14 13 13 12 13 15 16 17 18 14 10 8 7 9 10 6 5 5 2 4 14 18 18 19 20 19 20 20 18 15 13 12 12 11
8 2 5 9 15 16 13 10 6 6 9 11 10 9 10 9 6 6 6 6 8 7 6 8 9 8 8 10 10 7 12 11 8 7 6 8 6 5 18 26 21 18 16 14 14 12 8 8 8 9 11 12 10 10 12 12 11 10 14 18 19 20 20 15 9 7 7 10 12 7 5 8 7 8 13 16 16 17 18 19 19 19 18 15 13 13 12 11
6 1 4 8 12 14 15 14 10 7 7 9 8 9 11 9 5 3 5 6 9 10 10 10 11 11 10 11 12 7 11 11 8 7 5 4 5 7 15 21 21 18 15 11 12 12 7 5 4 3 7 11 12 12 14 14 12 13 17 21 20 20 20 16 11 8 8 9 10 7 14 15 12 12 14 15 16 16 16 18 19 18 17 15 13 13 12 11
5 2 3 7 9 11 12 13 12 7 6 7 6 7 10 8 2 0 3 6 9 10 10 11 12 12 10 9 10 7 8 13 11 10 11 8 7 7 12 20 18 11 13 12 12 10 6 4 4 1 1 5 11 15 17 18 17 17 17 18 18 18 18 16 12 7 5 8 5 10 20 20 14 15 16 14 14 14 15 18 19 18 17 15 14 13 13 12
4 3 4 5 5 6 9 12 13 9 7 8 5 3 6 6 4 3 5 7 10 12 10 9 12 15 13 11 10 7 7 14 12 11 12 10 8 7 11 19 14 8 10 15 12 9 5 4 7 6 4 2 5 10 15 18 18 16 15 16 16 15 13 12 10 3 3 4 6 12 19 20 16 15 15 13 14 15 16 18 19 18 18 17 15 15 13 12
5 6 7 5 4 5 7 10 11 9 9 8 5 4 5 7 9 8 6 5 8 12 12 10 11 14 15 14 10 6 8 10 11 9 11 10 8 8 10 14 12 9 13 14 10 8 4 3 7 10 8 4 4 8 11 14 15 15 14 13 11 12 12 8 4 5 5 7 13 16 18 17 14 14 14 14 17 19 19 18 18 19 19 17 16 15 13 13
5 6 7 6 6 7 6 6 7 8 8 7 6 5 7 9 9 7 7 8 8 10 12 13 13 12 13 15 13 9 9 7 12 8 8 9 8 7 8 10 12 13 15 12 9 6 3 3 7 10 8 6 6 8 7 7 10 11 10 8 6 9 11 8 7 10 12 13 16 20 20 14 10 14 18 18 18 19 19 18 18 18 18 17 16 14 14 13
7 7 8 8 6 5 5 6 7 6 6 7 6 5 6 8 8 6 7 10 10 9 10 12 11 10 10 11 10 5 4 7 15 10 7 9 9 9 10 10 13 15 14 11 8 5 4 5 7 8 8 6 8 11 12 13 13 12 11 8 4 6 9 9 7 6 10 15 16 16 13 8 10 16 19 18 19 19 18 18 18 17 16 16 16 15 14 13
7 6 6 7 6 5 4 6 7 6 4 4 4 5 7 6 5 6 6 5 5 6 7 7 8 7 5 4 5 2 4 7 16 15 14 14 13 13 14 16 17 14 11 10 9 7 6 5 6 8 8 8 10 13 15 16 12 9 9 6 3 5 10 11 10 9 8 11 9 6 8 11 14 17 16 16 17 17 17 17 17 17 16 15 15 14 14 12
Wind_Direction
330 331 327 320 312 305 303 304 304 303 300 300 300 302 298 284 284 289 283 277 276 274 268 268 268 273 283 283 285 286 287 284 278 274 262 254 245 236 231 221 198 198 206 199 177 188 194 197 201 200 204 206 213 223 206 204 220 211 227 234 227 233 223 217 188 198 79 94 100 120 178 245 159 169 177 172 168 138 150 153 126 116 106 98 108 135 145 148
327 328 328 324 319 309 302 301 304 305 299 295 292 295 298 286 280 288 288 280 280 278 268 265 263 268 281 278 284 290 290 291 287 275 259 252 249 243 233 221 206 202 206 196 192 195 193 196 197 196 203 207 208 212 197 196 213 213 224 228 226 235 215 235 315 61 62 86 88 122 171 267 160 156 168 181 167 152 164 157 146 119 108 109 119 138 143 146
323 324 324 323 322 316 308 303 303 304 301 297 289 284 291 289 280 284 289 282 280 276 266 260 259 265 272 273 283 290 298 304 290 274 262 256 249 240 232 223 213 207 198 191 200 202 200 203 197 198 208 213 206 200 193 192 202 217 227 230 227 240 228 189 329 14 58 62 76 115 181 187 159 157 180 187 169 177 178 161 166 140 127 133 136 144 142 145
320 319 320 319 319 317 311 307 303 299 299 298 289 279 282 288 284 286 290 287 283 274 265 257 255 256 259 266 271 288 325 311 282 251 243 251 247 238 233 225 216 209 194 190 208 211 212 213 201 204 215 219 209 199 201 192 192 214 221 237 230 236 256 191 201 215 109 352 348 98 203 176 161 175 193 191 177 189 177 170 177 145 142 149 147 151 145 145
318 316 316 316 316 317 315 316 311 301 301 298 287 281 282 283 281 284 288 288 288 283 268 254 251 246 244 249 251 274 344 305 253 202 220 238 242 238 234 226 218 209 196 199 216 216 218 218 206 208 220 226 213 202 212 202 198 222 218 238 251 246 261 194 181 194 152 209 238 221 216 149 164 184 199 197 184 197 164 163 150 125 138 151 152 154 147 145
315 313 312 313 312 315 317 322 320 302 303 304 288 285 287 281 275 280 289 288 286 286 273 257 250 235 233 234 223 177 233 265 101 175 220 228 233 227 224 224 218 207 197 206 217 214 216 216 208 210 218 228 222 207 216 207 203 231 217 229 252 256 246 200 169 173 181 212 219 252 192 155 202 185 196 194 101 99 127 132 116 115 140 158 158 152 143 144
312 309 307 308 307 311 315 322 322 301 296 308 296 285 284 283 279 279 287 288 283 276 265 261 248 228 221 210 214 214 238 251 242 276 257 225 223 206 198 211 213 207 198 205 214 210 212 213 209 213 216 224 228 215 215 210 203 227 232 218 231 237 235 213 183 179 195 221 224 260 185 197 217 175 179 139 92 103 110 116 116 128 153 160 153 142 139 143
311 307 305 304 304 308 311 317 320 304 287 295 298 288 282 284 283 279 276 282 287 276 260 257 245 229 211 190 224 239 236 242 238 267 286 237 219 201 187 196 206 204 199 204 210 208 210 212 212 214 219 223 227 220 215 215 205 218 240 230 216 222 228 222 214 203 206 219 219 232 207 197 213 175 172 144 119 127 120 115 118 137 153 152 143 136 140 142
311 308 305 305 306 308 310 311 315 306 284 280 293 291 282 280 280 277 274 277 286 283 265 256 249 226 196 188 246 254 239 239 235 246 268 242 228 222 205 201 210 201 200 206 209 210 211 214 214 214 225 228 227 225 216 218 210 209 227 238 224 214 220 219 216 212 210 211 208 211 202 183 173 180 165 139 134 136 130 118 121 153 157 148 139 138 143 144
310 308 306 307 307 309 311 308 308 305 288 277 285 289 284 280 277 272 271 275 277 279 270 257 254 217 177 211 250 252 238 231 234 242 247 237 234 235 222 214 214 201 202 208 210 212 212 215 215 218 230 236 234 231 217 218 217 205 218 230 231 223 212 208 211 207 204 206 205 206 201 168 169 199 175 140 151 147 137 129 149 170 156 145 140 141 145 143
309 308 306 306 308 311 310 305 302 301 294 284 280 280 281 283 280 271 266 273 272 274 272 258 256 223 195 247 245 236 223 223 230 235 244 241 232 230 224 215 211 205 205 208 210 212 214 217 216 219 228 239 243 237 221 219 223 211 218 226 225 228 216 203 208 202 201 205 198 208 203 161 175 212 180 146 158 156 143 143 167 170 150 144 140 139 140 135
308 306 305 305 309 311 307 302 298 295 294 288 280 274 275 280 283 275 261 265 271 271 272 261 254 241 247 260 242 226 214 232 234 226 243 242 227 223 218 213 212 211 209 209 211 211 214 217 218 223 222 226 235 236 225 216 223 228 224 229 215 219 221 206 207 200 203 201 187 204 208 167 188 197 143 142 156 156 151 154 169 163 146 144 138 136 133 130
305 302 304 304 308 309 303 300 296 291 289 286 283 275 273 277 278 276 262 256 262 262 266 259 255 263 263 260 246 232 231 243 248 251 251 233 224 224 217 217 216 215 214 212 212 211 214 216 219 229 225 224 225 229 236 208 215 226 218 233 214 207 216 204 204 199 202 198 181 197 206 178 191 165 130 143 158 158 157 162 169 156 144 142 138 135 129 130
304 301 302 303 306 307 301 296 291 290 288 286 284 274 270 272 272 275 265 253 255 257 258 255 259 264 255 259 260 245 239 247 252 249 245 231 225 223 217 222 218 215 215 214 215 210 213 216 222 235 229 229 227 203 217 203 205 219 209 225 223 212 206 194 198 197 196 190 178 197 218 187 177 153 147 160 165 170 165 165 169 156 150 147 140 135 131 136
303 299 298 300 303 302 298 293 289 288 290 289 286 278 273 271 271 272 267 257 251 252 256 258 257 250 256 268 274 256 234 236 243 238 231 224 220 219 214 218 214 209 210 211 215 210 211 211 215 231 224 226 234 212 207 208 198 211 210 213 219 225 200 183 191 194 192 182 178 204 226 173 157 150 162 169 173 183 168 162 164 152 151 147 141 139 134 133
302 296 296 298 298 297 295 291 289 289 291 291 288 285 280 276 272 269 267 259 246 244 249 256 245 237 261 274 270 250 225 226 236 232 224 218 217 218 214 210 203 200 202 204 209 206 203 204 209 224 221 217 231 223 208 209 198 204 215 211 206 222 205 176 184 189 193 181 181 211 219 128 143 152 162 169 175 184 168 161 163 154 151 145 144 143 135 131
303 296 294 295 294 294 294 291 289 288 289 291 292 298 294 282 277 270 265 256 241 235 228 236 241 238 254 263 254 240 221 222 233 226 218 214 213 215 208 198 193 190 191 193 199 196 191 199 207 217 223 216 214 216 210 204 199 198 211 215 202 216 209 170 174 185 195 186 183 213 213 115 142 155 161 166 171 180 169 163 165 161 158 156 155 145 138 140
304 295 291 291 292 292 293 293 291 289 288 289 297 319 318 290 282 271 255 235 198 208 236 231 228 240 246 238 236 235 221 217 218 211 209 206 205 208 199 192 187 182 183 186 192 192 187 196 204 207 217 216 205 211 214 202 201 195 200 212 201 209 204 171 174 183 194 192 187 208 195 131 151 153 158 164 172 182 167 163 169 166 166 167 164 149 144 146
304 296 293 289 290 293 296 297 296 293 290 291 307 340 331 307 293 255 224 196 176 184 225 201 193 212 278 228 220 220 208 203 199 198 199 195 194 198 194 190 185 181 182 183 187 189 186 190 202 209 209 208 204 208 217 210 204 197 197 210 201 201 199 176 178 181 188 192 191 202 180 136 150 149 150 154 169 178 160 165 173 164 170 173 164 150 144 140
307 298 294 290 290 293 296 297 298 294 289 293 313 322 295 243 239 222 201 201 204 211 236 205 190 215 262 263 205 206 191 186 192 197 194 187 186 189 190 188 186 187 189 186 184 186 187 192 203 209 207 206 206 208 218 221 213 199 196 211 206 198 200 183 177 177 184 191 193 196 172 138 141 135 138 140 149 162 160 172 174 166 173 173 163 148 135 125
311 300 294 292 291 291 294 298 299 291 286 291 295 280 255 243 273 244 198 213 223 227 246 241 208 224 249 257 198 205 214 205 201 202 192 183 183 186 187 186 186 191 196 191 183 183 191 206 208 207 210 207 205 208 216 225 228 211 197 205 207 201 200 176 165 172 180 193 196 184 158 139 140 126 133 142 146 155 164 174 176 172 169 160 150 137 124 115
310 300 292 291 290 291 294 296 294 287 284 285 270 254 256 277 313 319 272 251 244 234 239 246 239 239 249 251 242 229 231 213 201 199 189 181 185 188 183 185 193 190 192 192 184 185 197 213 209 203 210 209 205 208 213 221 229 222 201 203 204 197 187 152 153 172 180 199 197 171 150 138 138 128 133 141 140 139 143 150 162 165 154 140 130 119 117 114
306 297 286 286 287 291 292 293 292 288 280 266 255 249 255 277 291 296 287 276 268 245 232 234 237 238 240 241 233 224 230 218 199 191 184 182 188 192 185 185 197 190 190 196 190 190 201 210 207 202 208 210 204 204 210 215 216 216 208 203 198 194 189 158 161 180 187 204 189 157 150 144 136 134 137 135 133 130 124 117 116 132 134 127 115 102 107 113
305 295 280 280 285 289 290 293 297 291 276 256 254 252 253 270 280 296 288 272 275 257 236 226 224 230 230 230 223 216 223 223 211 190 181 187 189 192 194 190 195 195 194 198 196 200 206 201 202 202 207 209 202 201 207 207 202 214 214 208 204 195 183 155 163 181 189 201 187 164 162 162 159 159 153 141 134 130 125 118 109 111 118 120 113 103 101 101
307 298 277 273 281 287 291 299 309 301 270 250 255 257 251 253 259 295 294 271 263 248 233 220 216 225 224 221 215 211 217 223 225 200 181 190 191 188 196 193 198 202 195 198 198 204 210 196 196 201 202 206 204 201 203 198 197 212 217 221 218 194 173 161 171 180 185 199 194 183 182 178 181 177 163 158 149 138 131 125 119 116 119 119 114 112 110 97
308 301 273 264 273 286 292 299 296 258 256 245 248 253 225 218 244 297 283 265 261 226 205 198 200 210 209 207 201 200 214 220 224 211 182 190 196 191 193 192 202 209 193 196 201 206 211 194 191 200 199 202 207 202 197 196 205 208 205 223 223 193 181 177 175 180 187 194 191 191 192 175 180 181 169 167 161 148 134 122 123 124 118 107 97 98 104 100
307 298 271 260 269 283 281 274 253 244 260 233 188 189 178 179 264 295 261 257 255 190 172 177 179 186 192 190 184 187 208 196 205 212 188 189 198 198 203 193 196 211 193 190 205 204 206 193 189 200 199 199 205 199 192 197 215 205 182 211 227 201 188 181 178 188 197 189 184 193 204 192 178 180 171 169 165 153 141 127 122 116 107 100 91 86 90 93
303 290 269 260 263 269 263 269 274 257 260 220 177 210 201 234 272 260 242 259 230 157 157 167 166 180 189 182 179 193 209 177 183 204 190 190 198 199 211 199 193 208 195 192 207 190 196 200 191 194 194 194 202 198 191 196 216 210 173 196 235 213 185 179 190 201 195 191 188 194 208 208 175 176 171 170 172 160 145 134 118 103 99 100 96 89 85 84
297 285 270 264 265 269 269 269 259 243 241 248 240 230 218 261 267 242 235 249 197 165 168 160 161 184 187 178 182 200 210 189 178 184 182 191 201 203 215 203 198 208 197 196 209 187 192 207 189 183 195 197 200 203 194 195 216 212 172 183 227 219 182 182 201 205 197 205 201 191 203 208 167 170 177 176 177 165 145 130 117 106 102 98 94 91 87 84
296 285 269 264 264 271 279 271 255 243 235 235 238 231 239 253 243 224 233 235 136 197 167 153 166 184 182 176 185 199 208 203 178 172 178 188 198 207 218 205 201 210 198 196 212 200 187 198 186 185 209 204 198 206 195 195 216 214 176 180 205 206 190 197 207 207 203 209 207 196 201 210 184 169 188 185 173 163 149 137 129 116 105 99 96 93 88 85
293 285 270 261 253 253 263 258 248 233 224 226 225 222 234 243 223 227 224 172 43 281 175 167 179 183 183 181 183 194 206 208 176 167 178 184 191 203 209 202 200 207 197 191 212 206 178 186 194 196 211 206 197 202 191 194 214 212 181 186 193 188 199 209 206 212 213 204 207 203 201 209 205 180 186 172 154 156 155 152 143 126 113 105 99 92 86 83
288 276 269 258 242 237 236 232 219 196 199 206 214 215 217 227 228 230 211 153 199 276 277 197 188 180 185 189 184 187 201 203 175 171 180 181 186 198 199 195 190 195 195 186 202 204 182 188 198 194 202 204 200 196 184 196 208 198 186 195 192 181 192 203 200 210 219 207 207 201 197 206 199 163 159 142 140 146 141 143 140 128 117 109 100 92 87 84
282 269 267 260 247 238 232 230 225 203 189 196 220 223 218 233 233 225 225 216 192 272 310 301 244 195 185 192 186 183 199 198 175 174 182 183 186 192 200 201 193 195 196 186 193 196 186 190 192 191 195 199 205 199 180 194 201 190 191 198 194 184 185 197 195 202 212 206 210 202 193 189 150 136 133 119 114 114 114 120 124 119 114 107 102 98 93 89
274 270 269 262 249 238 231 228 222 211 207 221 230 221 220 238 242 229 228 207 109 255 266 317 296 226 190 194 186 179 198 196 176 177 181 184 188 189 198 199 194 198 198 189 192 189 187 188 188 191 186 189 206 206 187 192 194 192 202 202 202 197 188 195 195 202 204 195 208 204 189 167 135 118 110 111 108 105 106 110 113 112 111 108 105 101 96 90
274 278 274 264 249 237 227 220 215 208 207 218 224 218 220 229 235 234 235 115 90 241 256 276 280 235 195 197 188 183 198 193 179 187 184 184 192 189 194 195 192 198 198 189 191 190 193 191 186 191 184 187 204 203 189 194 192 193 210 210 208 203 184 187 208 218 203 187 199 197 146 76 119 114 115 121 117 114 113 114 118 115 113 110 104 101 97 89
283 287 277 262 247 235 221 210 205 199 198 208 217 221 225 229 250 277 299 329 353 230 265 269 261 236 197 194 186 185 197 194 185 192 187 187 193 190 192 192 191 198 200 193 187 186 195 189 178 184 187 190 203 201 189 195 195 189 207 211 209 208 195 188 203 207 190 192 190 168 106 90 129 127 135 137 125 125 127 125 126 121 116 111 104 102 98 92
285 282 265 251 237 223 210 200 193 192 198 211 221 225 230 232 247 266 162 197 244 214 267 266 235 218 195 192 189 183 186 187 188 194 189 188 191 190 193 192 191 198 204 202 193 186 199 187 170 179 187 184 194 208 199 198 204 196 202 206 202 210 212 201 194 180 193 201 191 174 154 148 165 159 155 153 138 138 143 136 133 127 120 113 106 104 99 94
279 273 265 249 226 203 192 188 182 183 194 214 229 236 245 245 246 221 162 179 186 217 262 267 226 215 196 189 187 181 178 179 189 193 191 189 188 189 192 191 190 195 201 203 200 195 204 193 166 178 190 178 182 207 209 198 209 212 201 205 206 206 206 200 199 195 196 200 194 186 179 179 192 173 163 165 152 145 148 142 138 131 123 115 108 104 97 91
266 268 264 229 194 184 178 175 176 183 198 216 226 234 247 263 270 260 186 176 207 241 266 271 228 234 222 206 195 180 174 178 187 192 192 190 184 186 191 193 188 190 196 199 199 200 203 195 170 180 189 177 171 201 208 189 206 217 205 206 220 218 206 200 202 202 200 202 198 194 194 199 197 170 168 170 157 150 152 147 140 132 124 117 109 104 97 90
262 258 241 180 170 172 167 167 177 189 208 223 227 234 238 249 255 246 221 227 244 244 265 262 239 254 268 250 220 183 173 180 189 194 194 183 176 183 190 190 188 190 191 191 193 200 197 185 176 179 183 182 176 199 206 189 195 211 203 198 207 211 210 208 205 205 210 207 195 194 198 188 140 164 167 163 155 153 152 142 134 129 121 114 107 104 99 93
262 254 216 176 168 165 161 167 188 201 213 227 231 236 240 251 253 232 199 247 263 248 258 271 270 274 276 272 245 187 177 184 188 190 191 183 180 185 188 186 188 188 186 187 190 194 190 173 176 183 185 190 188 191 200 200 197 203 207 205 205 202 202 206 206 205 212 213 198 194 189 136 45 26 162 155 152 149 145 138 130 125 119 111 107 104 101 97
253 252 186 172 169 166 166 176 203 208 216 230 231 233 235 245 256 235 198 227 256 248 251 260 263 269 265 275 272 204 181 180 187 188 186 187 187 182 183 186 188 184 182 189 187 183 190 184 183 191 189 189 187 188 200 207 198 196 211 217 209 204 204 206 205 201 209 220 209 193 170 118 42 15 151 151 149 140 139 140 132 123 118 113 110 107 103 98
243 245 166 166 172 174 180 199 206 207 224 227 227 234 233 229 238 235 221 240 255 246 259 261 256 264 253 250 262 216 186 181 184 184 183 183 183 181 180 184 188 184 182 194 183 171 188 202 190 193 190 186 185 185 197 210 201 195 208 219 212 205 207 216 215 201 206 224 218 196 164 130 16 100 140 141 142 136 136 140 133 124 118 114 112 108 104 99
258 246 146 157 176 182 198 219 197 204 223 222 226 236 236 236 241 242 240 255 256 252 269 267 259 264 247 245 262 224 203 198 166 159 187 178 168 194 183 178 184 184 180 193 182 163 182 203 192 190 181 178 188 185 186 205 213 201 199 211 215 207 205 217 225 208 212 222 215 205 163 137 79 123 135 135 137 133 131 134 130 123 119 116 112 110 107 103
276 260 122 156 183 194 220 240 233 233 224 218 228 236 236 235 231 246 265 262 257 263 270 265 266 273 262 266 277 229 203 206 163 153 207 169 138 212 187 175 184 188 177 185 183 169 185 199 187 197 192 178 183 189 181 190 206 204 195 201 212 212 204 208 217 202 204 219 213 199 140 127 120 118 125 131 134 129 127 128 124 120 120 118 117 115 110 105
281 282 120 161 190 210 234 249 262 271 238 221 222 230 238 231 200 226 265 263 264 260 257 267 275 276 266 259 267 236 179 186 192 178 174 141 147 196 185 180 189 181 157 163 181 175 188 200 172 225 224 192 185 189 186 185 195 204 200 196 204 211 203 201 215 209 197 218 221 167 133 134 138 133 128 131 133 129 128 128 122 120 121 120 121 119 113 107
271 251 167 168 191 214 230 238 240 242 248 240 219 218 233 227 177 303 240 240 259 253 248 260 258 260 269 248 247 252 172 169 191 180 157 162 178 174 184 191 186 150 133 164 192 187 184 190 160 87 298 206 193 188 184 187 194 200 201 196 200 209 207 203 205 203 209 224 209 137 136 141 148 147 139 136 135 130 130 130 126 125 124 123 123 119 113 109
251 269 232 195 195 215 212 218 223 225 239 239 221 215 226 211 201 232 230 235 253 249 240 246 242 243 255 241 226 246 197 168 176 183 168 168 169 157 185 192 176 136 158 181 193 192 181 179 171 148 108 114 182 184 187 193 194 192 194 197 200 204 211 210 197 194 286 229 155 139 141 140 143 147 140 135 135 131 129 128 126 126 125 124 123 119 115 110
274 290 270 240 238 239 214 210 213 214 227 232 224 222 220 218 220 220 224 239 252 246 230 229 243 238 234 229 215 230 225 172 152 178 180 163 156 163 181 181 168 171 186 184 182 180 161 160 174 159 134 117 160 178 190 196 190 184 183 189 201 204 202 204 172 106 93 113 124 131 128 123 131 140 131 125 127 125 123 124 125 125 124 124 124 121 117 111
291 303 306 296 265 245 228 220 211 205 214 220 224 226 217 229 235 219 224 238 237 236 224 224 246 246 227 220 206 212 233 170 138 162 177 150 147 177 186 172 168 183 189 181 176 172 151 168 174 156 135 134 159 165 164 155 148 150 151 149 175 189 175 148 105 100 105 106 113 120 116 109 119 125 122 121 121 121 121 122 124 124 124 125 124 122 119 113
294 297 308 309 285 248 221 212 208 207 208 202 213 238 223 229 238 224 239 249 237 229 221 221 244 254 236 218 192 203 256 152 143 154 166 159 170 195 200 176 166 181 187 172 164 174 176 175 170 158 144 142 158 160 146 125 111 105 99 93 115 146 132 116 103 107 125 126 124 122 122 127 132 125 122 122 122 121 121 122 122 122 124 125 123 122 120 113
306 301 293 285 286 274 233 205 197 205 211 183 189 242 251 238 227 217 231 247 240 235 223 229 262 263 214 150 96 1 309 141 144 154 166 180 189 190 194 184 171 177 181 164 164 175 167 164 180 175 157 151 158 153 142 136 129 113 96 62 32 103 108 98 78 61 94 132 140 131 130 138 139 133 127 126 125 122 120 120 120 122 123 122 121 121 118 108
Height
1511 1511 1510 1509 1508 1507 1507 1506 1505 1504 1504 1503 1502 1501 1500 1500 1499 1499 1498 1498 1498 1498 1498 1498 1499 1500 1500 1500 1500 1500 1499 1499 1499 1499 1497 1496 1497 1498 1498 1499 1500 1501 1502 1503 1504 1506 1507 1507 1508 1509 1509 1508 1508 1505 1504 1506 1504 1504 1503 1502 1499 1492 1485 1478 1477 1477 1474 1478 1480 1481 1482 1478 1478 1480 1481 1482 1482 1483 1488 1490 1492 1493 1495 1498 1501 1503 1505 1505
1511 1510 1509 1508 1507 1506 1506 1505 1504 1503 1502 1502 1501 1500 1499 1499 1498 1498 1497 1497 1497 1497 1497 1497 1498 1499 1499 1499 1499 1499 1498 1498 1497 1495 1493 1494 1496 1496 1497 1498 1499 1500 1501 1502 1504 1505 1506 1506 1507 1508 1507 1505 1505 1503 1502 1503 1503 1501 1499 1499 1495 1485 1479 1475 1475 1475 1476 1482 1482 1482 1483 1480 1478 1478 1480 1481 1482 1485 1488 1490 1493 1495 1498 1502 1504 1506 1506 1505
1509 1509 1508 1507 1506 1505 1505 1504 1503 1502 1501 1501 1500 1499 1498 1498 1498 1497 1497 1496 1496 1496 1495 1496 1496 1497 1498 1498 1499 1498 1498 1497 1496 1493 1491 1491 1493 1494 1496 1497 1498 1499 1500 1502 1504 1505 1505 1505 1506 1506 1505 1502 1501 1500 1500 1501 1501 1499 1497 1496 1490 1480 1477 1478 1481 1481 1483 1485 1483 1484 1484 1482 1481 1480 1480 1479 1481 1484 1484 1487 1490 1493 1501 1504 1505 1506 1505 1506
1508 1508 1507 1506 1505 1504 1503 1503 1502 1501 1500 1499 1498 1498 1497 1497 1497 1496 1496 1495 1495 1494 1494 1495 1495 1496 1497 1497 1498 1498 1498 1497 1492 1489 1487 1488 1491 1492 1494 1495 1496 1498 1499 1501 1504 1504 1504 1504 1504 1505 1503 1500 1498 1498 1499 1499 1499 1496 1495 1493 1484 1479 1480 1482 1485 1486 1487 1488 1486 1486 1484 1482 1483 1483 1481 1477 1481 1482 1479 1483 1486 1491 1500 1504 1505 1506 1505 1506
1507 1506 1506 1505 1504 1503 1502 1501 1500 1499 1498 1498 1497 1497 1496 1496 1496 1495 1495 1494 1494 1493 1493 1493 1493 1495 1496 1496 1497 1497 1500 1496 1487 1484 1485 1486 1489 1490 1492 1493 1495 1496 1498 1500 1502 1503 1503 1503 1503 1503 1501 1497 1495 1496 1496 1495 1497 1494 1492 1489 1481 1482 1484 1482 1485 1488 1490 1490 1488 1486 1484 1483 1483 1483 1480 1477 1481 1480 1478 1482 1485 1492 1500 1504 1505 1505 1505 1506
1506 1505 1504 1503 1503 1502 1501 1500 1499 1498 1497 1497 1496 1496 1495 1495 1494 1494 1494 1493 1492 1492 1492 1492 1492 1494 1494 1495 1496 1497 1498 1490 1483 1484 1485 1486 1487 1488 1490 1491 1493 1495 1497 1499 1501 1502 1502 1501 1501 1500 1498 1495 1492 1492 1493 1493 1495 1494 1490 1488 1485 1485 1485 1484 1486 1490 1491 1490 1489 1487 1486 1486 1484 1482 1481 1478 1481 1481 1480 1484 1488 1495 1501 1505 1506 1505 1505 1506
1505 1504 1503 1502 1502 1501 1500 1499 1498 1497 1496 1496 1495 1495 1494 1494 1493 1493 1493 1492 1491 1491 1491 1491 1491 1492 1493 1494 1495 1497 1495 1486 1484 1486 1485 1486 1487 1487 1488 1489 1491 1493 1495 1498 1499 1499 1500 1499 1498 1497 1496 1494 1491 1490 1491 1491 1493 1493 1489 1486 1487 1487 1486 1486 1488 1490 1491 1490 1489 1489 1488 1487 1484 1482 1483 1482 1485 1486 1485 1487 1492 1498 1502 1505 1506 1505 1506 1507
1504 1503 1502 1501 1500 1499 1498 1497 1496 1496 1495 1494 1494 1493 1493 1492 1492 1492 1491 1491 1490 1490 1489 1489 1490 1491 1492 1493 1494 1494 1491 1485 1485 1486 1485 1486 1487 1486 1487 1488 1489 1491 1493 1495 1496 1497 1498 1497 1496 1495 1493 1491 1489 1488 1489 1489 1490 1491 1489 1484 1485 1486 1486 1487 1489 1489 1490 1490 1490 1490 1488 1486 1484 1483 1482 1484 1487 1488 1488 1490 1495 1499 1502 1504 1504 1505 1507 1508
1503 1502 1501 1500 1499 1498 1497 1496 1495 1494 1494 1493 1493 1492 1492 1491 1491 1490 1490 1490 1489 1488 1488 1488 1488 1490 1490 1491 1493 1491 1485 1484 1485 1486 1485 1486 1486 1486 1487 1488 1488 1489 1491 1493 1495 1496 1495 1494 1494 1493 1491 1488 1488 1486 1487 1489 1487 1487 1488 1485 1484 1485 1486 1487 1488 1489 1489 1488 1488 1488 1486 1485 1486 1484 1482 1485 1488 1489 1490 1493 1497 1499 1502 1503 1504 1506 1508 1509
1501 1500 1499 1498 1497 1496 1495 1494 1493 1493 1492 1492 1491 1491 1490 1490 1489 1489 1489 1488 1488 1487 1487 1487 1487 1488 1489 1491 1492 1487 1481 1483 1484 1484 1484 1484 1486 1486 1486 1488 1488 1488 1490 1492 1493 1493 1493 1493 1492 1493 1491 1487 1486 1484 1485 1486 1484 1483 1485 1485 1484 1484 1485 1486 1487 1487 1487 1487 1487 1486 1485 1484 1487 1486 1484 1486 1489 1489 1491 1495 1499 1499 1501 1503 1505 1507 1509 1510
1500 1499 1498 1497 1496 1495 1493 1492 1492 1491 1491 1490 1490 1490 1489 1488 1488 1487 1487 1487 1487 1486 1486 1486 1486 1487 1488 1490 1489 1483 1480 1482 1483 1483 1482 1482 1484 1485 1486 1487 1487 1488 1489 1490 1491 1491 1492 1491 1492 1492 1490 1487 1486 1484 1483 1484 1483 1483 1484 1484 1484 1483 1483 1485 1485 1485 1485 1485 1486 1485 1482 1483 1486 1485 1482 1485 1489 1490 1492 1496 1498 1498 1500 1504 1506 1508 1509 1510
1498 1497 1496 1495 1494 1493 1492 1491 1490 1490 1489 1489 1488 1488 1487 1487 1486 1485 1485 1486 1485 1485 1485 1485 1485 1486 1488 1488 1483 1479 1479 1481 1481 1481 1481 1481 1483 1484 1484 1486 1486 1487 1487 1488 1489 1489 1491 1491 1491 1490 1487 1487 1486 1484 1482 1483 1483 1483 1484 1484 1483 1483 1483 1483 1483 1484 1484 1483 1484 1485 1485 1486 1486 1482 1481 1485 1489 1490 1492 1495 1496 1497 1500 1504 1506 1508 1509 1511
1497 1496 1494 1494 1492 1491 1490 1490 1489 1489 1488 1487 1486 1486 1486 1485 1484 1484 1484 1484 1484 1484 1484 1484 1484 1486 1488 1483 1478 1477 1478 1478 1479 1480 1480 1481 1482 1482 1482 1483 1484 1485 1486 1487 1487 1488 1490 1489 1490 1488 1486 1486 1484 1483 1482 1481 1484 1483 1483 1483 1481 1483 1483 1480 1481 1483 1482 1481 1480 1484 1489 1489 1482 1479 1483 1487 1489 1490 1492 1495 1495 1497 1501 1504 1506 1508 1510 1512
1495 1494 1493 1492 1491 1490 1489 1488 1488 1487 1486 1485 1485 1484 1483 1483 1483 1482 1482 1482 1482 1482 1482 1483 1483 1486 1486 1479 1474 1475 1476 1476 1476 1477 1478 1479 1480 1481 1481 1481 1482 1484 1485 1485 1486 1487 1488 1489 1490 1488 1486 1485 1481 1481 1482 1480 1483 1482 1482 1482 1478 1480 1479 1475 1477 1480 1480 1479 1479 1483 1486 1482 1477 1479 1485 1488 1489 1489 1491 1493 1495 1497 1502 1505 1506 1509 1511 1512
1493 1492 1491 1490 1489 1488 1487 1487 1486 1485 1485 1484 1482 1482 1481 1481 1480 1480 1480 1480 1481 1481 1481 1482 1483 1485 1484 1476 1472 1471 1472 1473 1472 1472 1475 1477 1478 1479 1479 1480 1481 1482 1484 1485 1485 1486 1487 1488 1489 1488 1486 1485 1481 1481 1482 1480 1480 1479 1483 1483 1477 1474 1472 1470 1473 1475 1477 1477 1478 1483 1480 1474 1475 1480 1484 1487 1489 1488 1489 1493 1496 1498 1502 1505 1507 1509 1511 1513
1491 1490 1489 1488 1487 1487 1486 1486 1485 1484 1483 1482 1480 1479 1479 1478 1478 1478 1478 1478 1480 1479 1481 1483 1484 1485 1481 1473 1469 1468 1468 1468 1467 1469 1472 1474 1476 1477 1478 1479 1479 1481 1482 1484 1484 1485 1486 1487 1488 1487 1484 1483 1481 1480 1480 1479 1478 1477 1478 1479 1475 1472 1466 1467 1471 1470 1472 1475 1478 1478 1474 1475 1479 1480 1483 1486 1488 1488 1489 1493 1497 1500 1502 1505 1508 1509 1511 1513
1489 1488 1488 1487 1486 1485 1485 1484 1483 1482 1481 1480 1478 1478 1477 1477 1476 1477 1476 1477 1478 1479 1481 1482 1483 1485 1478 1469 1466 1464 1464 1464 1465 1467 1469 1471 1474 1475 1476 1477 1478 1480 1481 1483 1484 1484 1485 1486 1486 1485 1482 1479 1478 1478 1479 1481 1479 1475 1474 1472 1470 1468 1461 1464 1470 1469 1468 1472 1476 1474 1472 1480 1483 1481 1483 1485 1487 1488 1489 1493 1496 1500 1503 1506 1509 1510 1511 1513
1487 1487 1486 1485 1484 1484 1483 1482 1481 1480 1479 1478 1477 1477 1476 1475 1475 1475 1475 1476 1478 1481 1483 1481 1483 1483 1469 1460 1461 1459 1459 1461 1462 1464 1466 1468 1471 1473 1474 1475 1476 1478 1479 1481 1482 1481 1483 1483 1482 1481 1479 1476 1474 1473 1475 1475 1472 1471 1472 1469 1466 1463 1458 1462 1468 1467 1466 1469 1474 1473 1474 1482 1483 1482 1483 1484 1487 1487 1489 1493 1496 1499 1503 1506 1508 1509 1511 1513
1486 1485 1484 1484 1483 1482 1481 1480 1479 1478 1477 1476 1476 1476 1476 1476 1475 1476 1476 1476 1477 1478 1475 1473 1475 1470 1456 1451 1455 1456 1456 1458 1459 1462 1463 1465 1469 1471 1472 1473 1474 1475 1475 1476 1477 1477 1478 1479 1480 1478 1474 1471 1468 1468 1467 1463 1460 1463 1466 1464 1462 1461 1457 1457 1462 1463 1464 1469 1472 1470 1473 1482 1484 1484 1484 1484 1486 1487 1489 1494 1495 1499 1502 1505 1507 1508 1510 1513
1484 1483 1483 1482 1481 1481 1480 1479 1478 1476 1476 1475 1476 1476 1476 1475 1473 1472 1474 1474 1471 1467 1464 1461 1463 1460 1452 1450 1453 1455 1456 1457 1458 1459 1460 1463 1466 1468 1470 1471 1471 1471 1470 1469 1471 1473 1474 1475 1474 1470 1467 1465 1464 1465 1462 1456 1454 1457 1461 1460 1457 1457 1456 1453 1457 1459 1461 1469 1471 1466 1470 1481 1485 1485 1486 1487 1489 1489 1491 1494 1495 1498 1501 1503 1505 1508 1510 1513
1482 1482 1481 1480 1480 1479 1478 1477 1476 1475 1474 1474 1476 1476 1474 1471 1468 1467 1469 1469 1465 1463 1461 1459 1460 1458 1453 1452 1453 1455 1455 1455 1456 1457 1458 1461 1463 1464 1465 1466 1466 1466 1464 1464 1467 1469 1472 1470 1465 1463 1462 1461 1462 1463 1460 1456 1453 1453 1457 1459 1457 1456 1454 1450 1454 1458 1460 1467 1468 1464 1472 1484 1486 1487 1488 1489 1491 1493 1493 1494 1495 1497 1500 1502 1505 1509 1511 1513
1481 1480 1480 1479 1478 1477 1477 1476 1474 1473 1473 1474 1475 1475 1472 1471 1470 1469 1470 1466 1461 1460 1459 1458 1458 1456 1453 1453 1454 1455 1454 1451 1452 1454 1455 1458 1460 1459 1458 1460 1460 1460 1460 1460 1462 1466 1468 1464 1459 1459 1460 1459 1460 1460 1459 1458 1456 1455 1455 1457 1457 1454 1452 1453 1457 1458 1460 1466 1463 1463 1477 1487 1487 1488 1489 1490 1493 1495 1496 1496 1497 1498 1501 1504 1507 1511 1512 1514
1479 1478 1478 1478 1477 1476 1475 1473 1473 1472 1471 1472 1473 1473 1472 1472 1472 1472 1471 1465 1456 1453 1454 1453 1454 1452 1451 1451 1452 1454 1453 1448 1447 1449 1451 1454 1455 1455 1454 1456 1456 1455 1456 1455 1456 1461 1463 1459 1455 1457 1458 1458 1458 1459 1459 1459 1459 1458 1455 1455 1455 1451 1452 1460 1464 1462 1461 1461 1459 1464 1480 1488 1488 1490 1490 1492 1495 1496 1499 1500 1500 1502 1504 1506 1510 1512 1514 1515
1476 1476 1476 1476 1475 1475 1473 1472 1471 1470 1470 1470 1471 1471 1472 1472 1472 1472 1470 1464 1453 1448 1446 1446 1448 1447 1446 1447 1450 1451 1450 1447 1444 1444 1448 1450 1450 1452 1451 1451 1453 1452 1451 1449 1450 1455 1455 1453 1453 1455 1456 1456 1457 1459 1458 1459 1461 1458 1453 1451 1450 1446 1448 1457 1464 1464 1463 1462 1460 1468 1486 1491 1488 1492 1492 1492 1495 1497 1500 1502 1503 1505 1506 1509 1512 1514 1516 1517
1474 1474 1474 1474 1474 1472 1472 1472 1470 1469 1470 1470 1470 1470 1471 1472 1472 1472 1470 1463 1449 1439 1437 1439 1441 1441 1441 1444 1447 1447 1448 1446 1443 1441 1444 1447 1447 1448 1448 1449 1450 1447 1446 1447 1448 1450 1449 1448 1450 1452 1454 1454 1456 1457 1456 1458 1462 1459 1453 1448 1444 1442 1447 1457 1464 1465 1470 1471 1462 1466 1493 1499 1486 1487 1492 1491 1493 1496 1499 1502 1503 1506 1508 1511 1514 1515 1517 1518
1472 1472 1471 1472 1472 1471 1472 1471 1469 1470 1470 1469 1470 1469 1470 1471 1471 1472 1470 1461 1443 1427 1427 1432 1433 1432 1434 1438 1441 1445 1447 1443 1440 1440 1441 1445 1446 1445 1445 1445 1445 1442 1442 1444 1446 1447 1444 1443 1446 1450 1452 1453 1454 1454 1453 1455 1459 1458 1453 1447 1442 1441 1447 1455 1461 1466 1473 1475 1463 1462 1485 1496 1488 1486 1488 1489 1492 1495 1498 1501 1504 1507 1510 1512 1515 1517 1518 1519
1471 1470 1470 1470 1470 1471 1471 1470 1469 1469 1468 1469 1469 1469 1470 1470 1471 1472 1468 1459 1438 1418 1419 1426 1427 1426 1427 1431 1437 1441 1440 1436 1438 1439 1438 1442 1444 1443 1442 1441 1442 1440 1436 1442 1448 1444 1439 1440 1445 1447 1448 1450 1451 1452 1451 1453 1456 1454 1448 1447 1444 1441 1447 1453 1459 1466 1466 1464 1465 1463 1469 1484 1493 1489 1484 1487 1492 1495 1499 1502 1506 1509 1512 1515 1517 1519 1519 1520
1469 1468 1468 1469 1469 1469 1470 1468 1468 1469 1469 1468 1469 1469 1469 1469 1471 1470 1468 1459 1433 1413 1415 1421 1424 1425 1424 1428 1433 1434 1430 1428 1434 1436 1436 1441 1441 1440 1439 1435 1438 1437 1431 1439 1446 1440 1437 1439 1441 1443 1446 1449 1449 1448 1449 1451 1453 1447 1443 1448 1447 1441 1446 1453 1459 1462 1459 1462 1472 1469 1462 1479 1495 1488 1481 1487 1492 1497 1502 1504 1508 1512 1514 1517 1519 1520 1520 1520
1467 1467 1467 1467 1467 1468 1468 1467 1468 1468 1468 1469 1469 1469 1468 1471 1471 1467 1465 1453 1426 1412 1415 1418 1422 1423 1422 1425 1429 1430 1427 1424 1427 1431 1436 1439 1438 1438 1436 1432 1435 1434 1430 1435 1439 1436 1437 1438 1438 1443 1448 1448 1447 1446 1446 1451 1451 1442 1441 1451 1450 1443 1445 1454 1459 1457 1457 1467 1475 1468 1463 1476 1495 1492 1484 1488 1491 1496 1503 1506 1510 1514 1516 1519 1519 1520 1521 1521
1465 1465 1465 1465 1466 1467 1467 1466 1465 1465 1467 1468 1469 1469 1469 1470 1468 1465 1462 1445 1424 1414 1413 1415 1418 1418 1418 1421 1425 1426 1423 1419 1420 1427 1434 1436 1437 1438 1435 1433 1434 1432 1430 1433 1435 1433 1433 1437 1438 1443 1447 1444 1445 1445 1444 1448 1447 1439 1442 1452 1454 1450 1449 1452 1453 1452 1464 1477 1471 1463 1460 1467 1491 1497 1485 1484 1488 1491 1500 1507 1512 1515 1517 1519 1520 1521 1522 1522
1462 1462 1463 1463 1465 1466 1466 1466 1464 1465 1467 1467 1467 1468 1469 1468 1465 1462 1449 1431 1424 1421 1413 1413 1414 1412 1414 1416 1419 1421 1420 1416 1415 1422 1429 1430 1434 1435 1432 1432 1435 1434 1433 1435 1437 1432 1433 1440 1439 1441 1444 1441 1443 1444 1443 1446 1444 1441 1445 1450 1458 1460 1458 1458 1456 1456 1471 1479 1465 1456 1456 1460 1483 1494 1482 1480 1485 1488 1497 1505 1509 1514 1517 1519 1521 1522 1522 1523
1460 1460 1460 1461 1462 1463 1464 1463 1463 1465 1465 1465 1466 1466 1467 1465 1459 1450 1432 1419 1425 1427 1416 1413 1410 1407 1411 1412 1412 1416 1415 1412 1411 1417 1422 1424 1428 1429 1427 1428 1431 1435 1437 1438 1439 1434 1434 1439 1438 1441 1442 1440 1442 1443 1445 1447 1442 1445 1450 1452 1463 1470 1473 1475 1471 1467 1469 1465 1454 1450 1454 1459 1471 1480 1480 1484 1489 1490 1497 1504 1508 1513 1516 1519 1521 1522 1523 1524
1457 1458 1458 1458 1459 1460 1460 1461 1463 1464 1463 1464 1465 1464 1465 1463 1448 1433 1421 1416 1424 1426 1417 1415 1412 1406 1409 1410 1408 1411 1412 1407 1407 1413 1417 1420 1425 1426 1426 1425 1425 1430 1434 1435 1437 1435 1437 1437 1435 1440 1440 1438 1440 1438 1444 1448 1441 1445 1451 1453 1461 1468 1481 1487 1476 1472 1469 1459 1449 1443 1451 1464 1471 1478 1483 1490 1496 1498 1502 1508 1512 1515 1517 1520 1522 1522 1524 1525
1455 1455 1455 1455 1456 1457 1458 1460 1461 1462 1463 1464 1463 1462 1463 1458 1439 1422 1417 1416 1420 1423 1420 1420 1418 1410 1407 1406 1402 1405 1408 1405 1404 1411 1414 1417 1422 1424 1424 1423 1422 1424 1427 1430 1433 1432 1441 1443 1435 1435 1435 1435 1437 1432 1437 1442 1440 1444 1444 1445 1451 1454 1469 1479 1471 1470 1467 1460 1453 1443 1453 1473 1481 1489 1492 1494 1501 1505 1509 1513 1515 1518 1519 1520 1523 1523 1525 1526
1452 1452 1452 1452 1453 1453 1455 1458 1459 1461 1462 1462 1461 1459 1456 1446 1431 1420 1420 1420 1422 1424 1420 1420 1422 1416 1407 1402 1399 1399 1403 1404 1405 1408 1410 1412 1417 1418 1417 1417 1418 1419 1422 1429 1429 1425 1436 1440 1429 1429 1431 1432 1433 1429 1430 1437 1442 1446 1441 1442 1446 1441 1448 1463 1462 1458 1457 1465 1465 1457 1472 1488 1489 1495 1497 1497 1504 1506 1511 1516 1516 1520 1521 1521 1524 1524 1525 1527
1450 1450 1450 1450 1450 1451 1453 1455 1457 1459 1460 1460 1458 1454 1444 1433 1425 1423 1426 1428 1427 1425 1422 1420 1420 1419 1411 1401 1397 1397 1398 1403 1407 1408 1408 1408 1411 1412 1412 1412 1413 1415 1416 1421 1422 1421 1432 1434 1424 1428 1432 1430 1432 1429 1428 1436 1442 1444 1443 1441 1438 1430 1436 1454 1462 1456 1456 1473 1473 1466 1489 1505 1499 1502 1501 1498 1505 1508 1511 1516 1517 1520 1521 1521 1524 1525 1526 1528
1449 1449 1448 1448 1449 1450 1451 1453 1456 1458 1458 1458 1454 1444 1432 1425 1422 1424 1428 1429 1426 1425 1427 1425 1418 1416 1412 1402 1395 1393 1395 1402 1407 1407 1406 1405 1406 1407 1407 1408 1410 1411 1412 1414 1416 1418 1425 1428 1422 1426 1432 1430 1433 1432 1428 1432 1435 1440 1444 1438 1432 1433 1435 1444 1460 1467 1467 1477 1474 1468 1490 1506 1500 1503 1504 1499 1505 1510 1511 1515 1517 1520 1521 1522 1524 1525 1527 1528
1447 1447 1446 1445 1446 1448 1450 1452 1454 1455 1456 1455 1449 1438 1428 1422 1420 1422 1425 1425 1424 1425 1427 1426 1417 1410 1407 1401 1392 1388 1392 1402 1406 1405 1404 1403 1404 1403 1403 1406 1407 1409 1410 1411 1416 1415 1417 1426 1425 1425 1430 1429 1432 1437 1436 1433 1430 1432 1436 1431 1432 1442 1444 1442 1455 1468 1472 1479 1479 1474 1486 1494 1490 1495 1501 1498 1503 1510 1511 1514 1518 1519 1521 1523 1523 1525 1527 1528
1446 1446 1443 1441 1444 1446 1447 1450 1452 1454 1453 1448 1443 1436 1429 1424 1421 1421 1422 1421 1424 1425 1423 1424 1422 1412 1404 1398 1389 1384 1390 1400 1403 1402 1402 1402 1403 1402 1401 1404 1405 1408 1409 1410 1415 1414 1413 1426 1431 1425 1424 1426 1431 1438 1437 1434 1431 1430 1431 1430 1429 1433 1436 1439 1445 1455 1464 1472 1478 1479 1480 1478 1475 1480 1489 1492 1496 1505 1510 1512 1516 1519 1521 1523 1524 1526 1527 1528
1444 1444 1441 1439 1442 1444 1445 1449 1450 1450 1447 1439 1434 1431 1427 1424 1421 1419 1420 1420 1422 1422 1421 1424 1425 1418 1410 1402 1390 1383 1389 1397 1400 1400 1399 1398 1402 1403 1400 1402 1405 1406 1409 1410 1415 1416 1414 1425 1434 1428 1423 1428 1434 1434 1430 1429 1433 1431 1429 1430 1431 1429 1429 1435 1438 1442 1450 1460 1471 1480 1478 1473 1472 1473 1478 1484 1492 1501 1507 1510 1515 1519 1521 1523 1525 1526 1528 1529
1443 1442 1438 1437 1440 1442 1444 1448 1447 1443 1439 1433 1428 1427 1424 1422 1419 1416 1419 1422 1421 1420 1421 1423 1423 1420 1416 1408 1394 1385 1387 1393 1396 1398 1398 1397 1401 1404 1400 1401 1404 1405 1409 1412 1414 1417 1417 1425 1435 1433 1426 1428 1429 1425 1424 1425 1427 1428 1427 1427 1429 1430 1433 1443 1448 1441 1438 1445 1456 1468 1476 1481 1483 1481 1478 1482 1491 1498 1505 1511 1515 1518 1521 1523 1525 1527 1528 1529
1441 1439 1436 1436 1439 1441 1443 1443 1439 1436 1432 1427 1425 1424 1423 1421 1418 1415 1418 1421 1420 1419 1420 1420 1420 1418 1412 1405 1397 1389 1389 1394 1395 1395 1398 1397 1396 1398 1398 1399 1402 1403 1408 1413 1413 1414 1417 1423 1433 1431 1423 1421 1422 1421 1423 1422 1421 1427 1431 1427 1424 1426 1431 1444 1451 1444 1438 1440 1439 1448 1472 1488 1487 1484 1484 1485 1490 1498 1505 1511 1515 1519 1521 1523 1525 1527 1529 1530
1439 1437 1435 1436 1437 1440 1441 1436 1432 1431 1427 1423 1422 1422 1420 1417 1416 1415 1415 1418 1419 1418 1418 1417 1415 1412 1407 1403 1400 1393 1391 1396 1395 1392 1394 1396 1394 1395 1396 1398 1400 1401 1405 1410 1411 1414 1419 1422 1428 1427 1418 1415 1417 1417 1420 1420 1421 1428 1432 1425 1421 1424 1427 1432 1434 1436 1441 1444 1438 1447 1478 1497 1491 1485 1486 1489 1493 1500 1507 1511 1514 1518 1521 1523 1526 1528 1529 1531
1437 1435 1434 1436 1437 1439 1438 1430 1425 1424 1421 1420 1419 1418 1416 1414 1414 1414 1415 1419 1419 1418 1418 1416 1411 1409 1405 1401 1397 1395 1394 1394 1394 1394 1393 1394 1396 1396 1394 1397 1400 1400 1405 1409 1408 1413 1422 1422 1425 1430 1428 1429 1431 1427 1426 1428 1425 1424 1426 1425 1421 1421 1426 1429 1429 1432 1443 1446 1442 1454 1482 1498 1494 1489 1488 1492 1498 1503 1508 1513 1515 1517 1521 1524 1527 1529 1530 1532
1435 1433 1434 1436 1436 1438 1435 1427 1423 1421 1419 1418 1419 1419 1416 1413 1414 1417 1419 1420 1420 1419 1419 1416 1411 1409 1406 1400 1396 1396 1396 1392 1396 1402 1398 1395 1400 1399 1394 1396 1400 1400 1404 1408 1408 1413 1420 1419 1422 1430 1432 1438 1445 1439 1431 1430 1426 1420 1421 1424 1423 1420 1423 1431 1434 1440 1451 1449 1441 1454 1480 1497 1497 1494 1494 1497 1501 1506 1510 1514 1516 1518 1522 1525 1528 1530 1531 1532
1436 1433 1433 1436 1437 1436 1432 1427 1427 1426 1420 1417 1419 1419 1415 1412 1415 1420 1422 1422 1421 1420 1419 1416 1412 1410 1406 1403 1398 1396 1396 1394 1396 1401 1402 1405 1406 1400 1396 1398 1400 1401 1404 1409 1410 1412 1416 1418 1422 1428 1425 1424 1430 1427 1421 1423 1427 1425 1421 1420 1423 1421 1421 1429 1435 1441 1449 1448 1444 1453 1475 1494 1500 1498 1499 1502 1504 1508 1512 1515 1517 1520 1523 1526 1529 1531 1532 1533
1435 1432 1430 1431 1433 1432 1430 1427 1426 1425 1421 1418 1416 1416 1414 1414 1419 1423 1424 1424 1422 1420 1418 1415 1413 1410 1406 1404 1400 1397 1398 1399 1398 1398 1405 1412 1408 1401 1401 1401 1400 1404 1407 1409 1410 1411 1417 1425 1428 1429 1425 1417 1415 1415 1415 1419 1423 1424 1421 1420 1422 1421 1421 1427 1434 1437 1441 1446 1455 1465 1474 1487 1497 1499 1502 1506 1507 1510 1513 1515 1519 1521 1524 1528 1530 1531 1533 1533
1434 1430 1427 1426 1426 1425 1423 1422 1420 1420 1421 1419 1414 1413 1416 1419 1423 1427 1426 1424 1422 1420 1417 1413 1409 1407 1405 1403 1401 1400 1398 1398 1400 1399 1402 1408 1406 1403 1404 1401 1402 1408 1408 1409 1411 1410 1417 1427 1429 1428 1427 1419 1415 1414 1414 1416 1418 1420 1423 1425 1426 1426 1427 1430 1434 1438 1443 1449 1462 1472 1474 1481 1493 1500 1504 1508 1509 1512 1515 1517 1520 1523 1525 1528 1530 1531 1533 1534
1432 1430 1427 1425 1425 1421 1417 1416 1416 1417 1419 1418 1415 1415 1419 1421 1423 1426 1425 1425 1423 1417 1413 1411 1407 1403 1401 1399 1400 1404 1400 1396 1401 1402 1400 1403 1406 1406 1405 1403 1405 1409 1408 1409 1411 1411 1419 1428 1427 1425 1428 1426 1421 1418 1417 1417 1418 1421 1426 1429 1430 1431 1433 1437 1440 1442 1448 1454 1461 1470 1477 1485 1496 1501 1505 1510 1513 1515 1518 1520 1522 1524 1526 1528 1531 1532 1533 1535
1433 1431 1428 1425 1423 1419 1415 1415 1415 1416 1417 1417 1417 1417 1418 1420 1421 1422 1423 1424 1422 1415 1409 1409 1406 1401 1398 1395 1398 1404 1400 1395 1399 1401 1400 1404 1408 1409 1407 1405 1406 1409 1409 1409 1411 1415 1425 1432 1426 1424 1431 1433 1427 1423 1423 1423 1425 1429 1434 1436 1438 1438 1439 1446 1451 1451 1455 1464 1470 1476 1487 1498 1503 1505 1508 1513 1516 1517 1519 1522 1523 1525 1527 1529 1531 1533 1534 1535
1434 1433 1431 1429 1423 1416 1415 1415 1414 1414 1414 1415 1417 1417 1417 1418 1418 1419 1420 1417 1414 1412 1408 1407 1406 1402 1398 1394 1396 1399 1397 1395 1399 1401 1402 1405 1408 1409 1406 1402 1404 1408 1408 1409 1415 1419 1424 1430 1429 1428 1438 1441 1432 1428 1432 1434 1438 1444 1448 1450 1449 1446 1448 1454 1458 1455 1457 1469 1478 1481 1490 1502 1506 1507 1511 1514 1517 1519 1521 1523 1525 1526 1528 1530 1532 1534 1535 1536
1434 1433 1432 1432 1425 1417 1414 1413 1411 1413 1414 1413 1416 1418 1417 1416 1415 1417 1418 1413 1409 1408 1407 1406 1406 1406 1403 1400 1399 1398 1397 1398 1399 1402 1407 1408 1407 1406 1403 1400 1402 1406 1407 1410 1418 1421 1422 1430 1430 1427 1438 1444 1433 1430 1439 1445 1453 1461 1464 1465 1462 1455 1455 1459 1461 1461 1461 1468 1473 1474 1483 1498 1505 1506 1510 1514 1517 1520 1522 1524 1526 1527 1530 1532 1533 1534 1536 1537